Location: Wald
(31.7579°N, 86.6655°W)
Time: 20:51:05
(UTC+00:00)

Cosmos 2218 Rocket - Pass Details

Date: 14 July 2020
Orbit: 955 x 1007 km, 82.9° (Epoch: 13 August)

Event Time Altitude Azimuth Distance (km) Brightness Sun altitude
Exits shadow 04:09:49 56° 48° (NE) 1,164 4.3 -31.2°
Drops below altitude 10° 04:14:59 10° 13° (NNE) 2,741 6.9 -31.7°
Sets 04:17:31 0° 10° (N) 3,684 7.7 -32.0°
